Location: Monteux
(44.0348°N, 4.9972°E)
Time: 19:59:38
(UTC+00:00)

N. Korean satellite - Visible Passes

Search period start: 21 September 2021 00:00
Search period end: 01 October 2021 00:00
Orbit: 448 x 498 km, 97.3° (Epoch: 20 September)

Date Brightness Start Highest point End Pass type
(mag) Time Alt. Az. Time Alt. Az. Time Alt. Az.
21 Sep 10.0 03:53:02 10° ENE 03:54:14 11° E 03:55:26 10° ESE visible
22 Sep 6.8 04:56:29 10° NNE 05:00:00 75° ESE 05:03:34 10° S visible
23 Sep 8.6 04:28:59 10° NNE 04:32:12 32° E 04:35:25 10° SSE visible
24 Sep 9.7 04:02:07 10° NE 04:04:16 15° E 04:06:26 10° SE visible
26 Sep 7.9 04:38:44 10° NNE 04:42:09 43° E 04:45:35 10° S visible
27 Sep 9.5 04:11:33 10° NE 04:14:15 20° E 04:16:57 10° SE visible
29 Sep 7.3 04:48:28 10° NNE 04:52:01 59° E 04:55:36 10° S visible
30 Sep 9.0 04:21:04 10° NE 04:24:09 26° E 04:27:14 10° SSE visible
